Year,Month,Day,Hour,Minute,Value (Times are PST for windspeed in km/hr)
2012,02,28,00,00,9.70
2012,02,28,00,01,8.90
2012,02,28,00,02,8.90
2012,02,28,00,03,8.40
2012,02,28,00,04,8.50
2012,02,28,00,05,8.60
2012,02,28,00,06,8.50
2012,02,28,00,07,7.20
2012,02,28,00,08,7.10
2012,02,28,00,09,6.40
2012,02,28,00,10,4.10
2012,02,28,00,11,6.70
2012,02,28,00,12,4.40
2012,02,28,00,13,6.40
2012,02,28,00,14,5.70
2012,02,28,00,15,6.20
2012,02,28,00,16,7.30
2012,02,28,00,17,8.10
2012,02,28,00,18,6.90
2012,02,28,00,19,8.10
2012,02,28,00,20,6.60
2012,02,28,00,21,7.10
2012,02,28,00,22,7.00
2012,02,28,00,23,7.70
2012,02,28,00,24,6.80
2012,02,28,00,25,7.20
2012,02,28,00,26,5.90
2012,02,28,00,27,6.90
2012,02,28,00,28,7.00
2012,02,28,00,29,7.20
2012,02,28,00,30,8.40
2012,02,28,00,31,7.60
2012,02,28,00,32,6.50
2012,02,28,00,33,7.50
2012,02,28,00,34,8.30
2012,02,28,00,35,7.60
2012,02,28,00,36,7.00
2012,02,28,00,37,9.10
2012,02,28,00,38,7.20
2012,02,28,00,39,9.10
2012,02,28,00,40,8.50
2012,02,28,00,41,7.80
2012,02,28,00,42,7.00
2012,02,28,00,43,6.90
2012,02,28,00,44,6.70
2012,02,28,00,45,6.90
2012,02,28,00,46,8.10
2012,02,28,00,47,6.30
2012,02,28,00,48,5.90
2012,02,28,00,49,8.00
2012,02,28,00,50,6.50
2012,02,28,00,51,7.60
2012,02,28,00,52,7.50
2012,02,28,00,53,8.00
2012,02,28,00,54,8.40
2012,02,28,00,55,8.10
2012,02,28,00,56,8.60
2012,02,28,00,57,6.70
2012,02,28,00,58,6.00
2012,02,28,00,59,6.90
2012,02,28,01,00,6.60
2012,02,28,01,01,6.60
2012,02,28,01,02,6.40
2012,02,28,01,03,6.40
2012,02,28,01,04,5.50
2012,02,28,01,05,6.90
2012,02,28,01,06,5.40
2012,02,28,01,07,5.80
2012,02,28,01,08,6.20
2012,02,28,01,09,6.20
2012,02,28,01,10,7.80
2012,02,28,01,11,6.90
2012,02,28,01,12,6.90
2012,02,28,01,13,7.30
2012,02,28,01,14,7.90
2012,02,28,01,15,7.70
2012,02,28,01,16,9.00
2012,02,28,01,17,8.10
2012,02,28,01,18,8.50
2012,02,28,01,19,8.10
2012,02,28,01,20,7.50
2012,02,28,01,21,6.30
2012,02,28,01,22,7.40
2012,02,28,01,23,6.40
2012,02,28,01,24,7.10
2012,02,28,01,25,7.20
2012,02,28,01,26,7.30
2012,02,28,01,27,7.30
2012,02,28,01,28,7.50
2012,02,28,01,29,6.60
2012,02,28,01,30,6.60
2012,02,28,01,31,6.80
2012,02,28,01,32,7.60
2012,02,28,01,33,8.30
2012,02,28,01,34,7.40
2012,02,28,01,35,7.60
2012,02,28,01,36,7.10
2012,02,28,01,37,7.60
2012,02,28,01,38,6.70
2012,02,28,01,39,7.40
2012,02,28,01,40,7.10
2012,02,28,01,41,8.10
2012,02,28,01,42,9.00
2012,02,28,01,43,7.90
2012,02,28,01,44,8.20
2012,02,28,01,45,7.20
2012,02,28,01,46,6.30
2012,02,28,01,47,8.20
2012,02,28,01,48,7.70
2012,02,28,01,49,6.00
2012,02,28,01,50,6.70
2012,02,28,01,51,7.60
2012,02,28,01,52,6.10
2012,02,28,01,53,5.00
2012,02,28,01,54,6.60
2012,02,28,01,55,7.00
2012,02,28,01,56,5.80
2012,02,28,01,57,6.00
2012,02,28,01,58,7.80
2012,02,28,01,59,4.50
2012,02,28,02,00,7.60
2012,02,28,02,01,8.70
2012,02,28,02,02,7.40
2012,02,28,02,03,5.50
2012,02,28,02,04,6.90
2012,02,28,02,05,7.70
2012,02,28,02,06,7.60
2012,02,28,02,07,8.00
2012,02,28,02,08,7.30
2012,02,28,02,09,8.30
2012,02,28,02,10,6.80
2012,02,28,02,11,6.30
2012,02,28,02,12,7.90
2012,02,28,02,13,7.30
2012,02,28,02,14,6.80
2012,02,28,02,15,6.90
2012,02,28,02,16,6.10
2012,02,28,02,17,8.10
2012,02,28,02,18,9.40
2012,02,28,02,19,6.70
2012,02,28,02,20,6.10
2012,02,28,02,21,7.50
2012,02,28,02,22,6.70
2012,02,28,02,23,5.70
2012,02,28,02,24,5.80
2012,02,28,02,25,8.00
2012,02,28,02,26,7.40
2012,02,28,02,27,5.90
2012,02,28,02,28,8.00
2012,02,28,02,29,8.00
2012,02,28,02,30,6.50
2012,02,28,02,31,6.80
2012,02,28,02,32,7.40
2012,02,28,02,33,7.00
2012,02,28,02,34,6.50
2012,02,28,02,35,8.50
2012,02,28,02,36,8.50
2012,02,28,02,37,6.90
2012,02,28,02,38,7.20
2012,02,28,02,39,8.90
2012,02,28,02,40,6.90
2012,02,28,02,41,7.30
2012,02,28,02,42,5.30
2012,02,28,02,43,7.10
2012,02,28,02,44,8.10
2012,02,28,02,45,5.90
2012,02,28,02,46,6.70
2012,02,28,02,47,6.60
2012,02,28,02,48,6.40
2012,02,28,02,49,5.50
2012,02,28,02,50,8.00
2012,02,28,02,51,6.70
2012,02,28,02,52,5.80
2012,02,28,02,53,6.70
2012,02,28,02,54,5.80
2012,02,28,02,55,6.10
2012,02,28,02,56,7.70
2012,02,28,02,57,7.30
2012,02,28,02,58,7.90
2012,02,28,02,59,7.20
2012,02,28,03,00,7.30
2012,02,28,03,01,8.70
2012,02,28,03,02,7.70
2012,02,28,03,03,7.20
2012,02,28,03,04,7.00
2012,02,28,03,05,5.80
2012,02,28,03,06,5.60
2012,02,28,03,07,7.60
2012,02,28,03,08,6.60
2012,02,28,03,09,6.70
2012,02,28,03,10,5.90
2012,02,28,03,11,7.30
2012,02,28,03,12,5.30
2012,02,28,03,13,7.20
2012,02,28,03,14,9.00
2012,02,28,03,15,7.40
2012,02,28,03,16,7.10
2012,02,28,03,17,8.90
2012,02,28,03,18,7.80
2012,02,28,03,19,8.00
2012,02,28,03,20,7.80
2012,02,28,03,21,6.30
2012,02,28,03,22,6.00
2012,02,28,03,23,4.00
2012,02,28,03,24,6.70
2012,02,28,03,25,7.00
2012,02,28,03,26,6.40
2012,02,28,03,27,7.00
2012,02,28,03,28,9.10
2012,02,28,03,29,6.40
2012,02,28,03,30,8.90
2012,02,28,03,31,6.80
2012,02,28,03,32,8.60
2012,02,28,03,33,6.90
2012,02,28,03,34,7.60
2012,02,28,03,35,6.80
2012,02,28,03,36,5.40
2012,02,28,03,37,6.20
2012,02,28,03,38,6.70
2012,02,28,03,39,8.20
2012,02,28,03,40,7.30
2012,02,28,03,41,8.50
2012,02,28,03,42,7.10
2012,02,28,03,43,6.40
2012,02,28,03,44,7.60
2012,02,28,03,45,8.20
2012,02,28,03,46,7.80
2012,02,28,03,47,8.10
2012,02,28,03,48,9.50
2012,02,28,03,49,9.30
2012,02,28,03,50,9.30
2012,02,28,03,51,7.70
2012,02,28,03,52,8.30
2012,02,28,03,53,8.40
2012,02,28,03,54,6.40
2012,02,28,03,55,9.30
2012,02,28,03,56,8.40
2012,02,28,03,57,7.40
2012,02,28,03,58,8.40
2012,02,28,03,59,7.00
2012,02,28,04,00,8.20
2012,02,28,04,01,10.10
2012,02,28,04,02,8.80
2012,02,28,04,03,11.90
2012,02,28,04,04,8.40
2012,02,28,04,05,7.90
2012,02,28,04,06,8.50
2012,02,28,04,07,8.90
2012,02,28,04,08,12.50
2012,02,28,04,09,6.40
2012,02,28,04,10,8.10
2012,02,28,04,11,8.80
2012,02,28,04,12,7.00
2012,02,28,04,13,7.20
2012,02,28,04,14,5.60
2012,02,28,04,15,5.20
2012,02,28,04,16,6.50
2012,02,28,04,17,6.60
2012,02,28,04,18,9.70
2012,02,28,04,19,7.80
2012,02,28,04,20,10.20
2012,02,28,04,21,7.60
2012,02,28,04,22,9.70
2012,02,28,04,23,10.90
2012,02,28,04,24,10.00
2012,02,28,04,25,10.20
2012,02,28,04,26,8.80
2012,02,28,04,27,10.20
2012,02,28,04,28,7.20
2012,02,28,04,29,6.90
2012,02,28,04,30,7.70
2012,02,28,04,31,9.60
2012,02,28,04,32,9.00
2012,02,28,04,33,10.40
2012,02,28,04,34,9.00
2012,02,28,04,35,10.70
2012,02,28,04,36,8.40
2012,02,28,04,37,8.50
2012,02,28,04,38,7.80
2012,02,28,04,39,9.10
2012,02,28,04,40,8.40
2012,02,28,04,41,10.10
2012,02,28,04,42,10.80
2012,02,28,04,43,9.40
2012,02,28,04,44,10.10
2012,02,28,04,45,8.40
2012,02,28,04,46,11.90
2012,02,28,04,47,8.70
2012,02,28,04,48,10.80
2012,02,28,04,49,8.80
2012,02,28,04,50,7.90
2012,02,28,04,51,9.00
2012,02,28,04,52,10.10
2012,02,28,04,53,7.50
2012,02,28,04,54,5.50
2012,02,28,04,55,8.60
2012,02,28,04,56,8.60
2012,02,28,04,57,10.90
2012,02,28,04,58,11.90
2012,02,28,04,59,7.80
2012,02,28,05,00,9.10
2012,02,28,05,01,11.90
2012,02,28,05,02,10.50
2012,02,28,05,03,9.00
2012,02,28,05,04,9.30
2012,02,28,05,05,9.10
2012,02,28,05,06,11.90
2012,02,28,05,07,8.60
2012,02,28,05,08,8.40
2012,02,28,05,09,9.00
2012,02,28,05,10,4.00
2012,02,28,05,11,5.00
2012,02,28,05,12,4.60
2012,02,28,05,13,8.70
2012,02,28,05,14,5.60
2012,02,28,05,15,2.30
2012,02,28,05,16,7.10
2012,02,28,05,17,10.90
2012,02,28,05,18,10.90
2012,02,28,05,19,10.70
2012,02,28,05,20,9.50
2012,02,28,05,21,7.40
2012,02,28,05,22,5.70
2012,02,28,05,23,7.20
2012,02,28,05,24,7.30
2012,02,28,05,25,5.50
2012,02,28,05,26,3.80
2012,02,28,05,27,4.50
2012,02,28,05,28,5.90
2012,02,28,05,29,4.10
2012,02,28,05,30,4.50
2012,02,28,05,31,5.40
2012,02,28,05,32,5.40
2012,02,28,05,33,5.10
2012,02,28,05,34,3.30
2012,02,28,05,35,3.80
2012,02,28,05,36,5.90
2012,02,28,05,37,7.90
2012,02,28,05,38,6.60
2012,02,28,05,39,7.80
2012,02,28,05,40,8.30
2012,02,28,05,41,8.10
2012,02,28,05,42,10.00
2012,02,28,05,43,7.30
2012,02,28,05,44,7.00
2012,02,28,05,45,8.90
2012,02,28,05,46,8.00
2012,02,28,05,47,8.10
2012,02,28,05,48,6.90
2012,02,28,05,49,9.70
2012,02,28,05,50,12.20
2012,02,28,05,51,9.80
2012,02,28,05,52,5.70
2012,02,28,05,53,6.40
2012,02,28,05,54,7.40
2012,02,28,05,55,6.00
2012,02,28,05,56,5.40
2012,02,28,05,57,5.00
2012,02,28,05,58,6.70
2012,02,28,05,59,8.50
2012,02,28,06,00,6.90
2012,02,28,06,01,6.60
2012,02,28,06,02,8.00
2012,02,28,06,03,6.50
2012,02,28,06,04,6.50
2012,02,28,06,05,6.80
2012,02,28,06,06,6.50
2012,02,28,06,07,5.80
2012,02,28,06,08,6.10
2012,02,28,06,09,4.20
2012,02,28,06,10,4.70
2012,02,28,06,11,4.30
2012,02,28,06,12,4.70
2012,02,28,06,13,5.00
2012,02,28,06,14,6.90
2012,02,28,06,15,6.10
2012,02,28,06,16,6.30
2012,02,28,06,17,6.10
2012,02,28,06,18,6.40
2012,02,28,06,19,6.70
2012,02,28,06,20,6.60
2012,02,28,06,21,6.50
2012,02,28,06,22,8.10
2012,02,28,06,23,7.80
2012,02,28,06,24,9.40
2012,02,28,06,25,8.80
2012,02,28,06,26,8.40
2012,02,28,06,27,9.30
2012,02,28,06,28,9.20
2012,02,28,06,29,8.40
2012,02,28,06,30,7.20
2012,02,28,06,31,5.80
2012,02,28,06,32,7.50
2012,02,28,06,33,9.30
2012,02,28,06,34,10.30
2012,02,28,06,35,8.70
2012,02,28,06,36,6.80
2012,02,28,06,37,7.20
2012,02,28,06,38,8.30
2012,02,28,06,39,9.30
2012,02,28,06,40,11.70
2012,02,28,06,41,7.60
2012,02,28,06,42,8.60
2012,02,28,06,43,8.10
2012,02,28,06,44,8.50
2012,02,28,06,45,8.10
2012,02,28,06,46,8.20
2012,02,28,06,47,12.10
2012,02,28,06,48,12.00
2012,02,28,06,49,8.10
2012,02,28,06,50,9.30
2012,02,28,06,51,9.20
2012,02,28,06,52,8.10
2012,02,28,06,53,11.20
2012,02,28,06,54,8.60
2012,02,28,06,55,7.70
2012,02,28,06,56,8.10
2012,02,28,06,57,7.80
2012,02,28,06,58,8.10
2012,02,28,06,59,8.10
2012,02,28,07,00,9.70
2012,02,28,07,01,8.70
2012,02,28,07,02,9.00
2012,02,28,07,03,11.80
2012,02,28,07,04,10.70
2012,02,28,07,05,8.60
2012,02,28,07,06,11.80
2012,02,28,07,07,11.50
2012,02,28,07,08,11.30
2012,02,28,07,09,9.30
2012,02,28,07,10,7.90
2012,02,28,07,11,7.40
2012,02,28,07,12,7.00
2012,02,28,07,13,9.30
2012,02,28,07,14,8.20
2012,02,28,07,15,8.30
2012,02,28,07,16,8.70
2012,02,28,07,17,7.30
2012,02,28,07,18,7.30
2012,02,28,07,19,6.10
2012,02,28,07,20,6.40
2012,02,28,07,21,6.30
2012,02,28,07,22,9.00
2012,02,28,07,23,8.80
2012,02,28,07,24,5.40
2012,02,28,07,25,5.70
2012,02,28,07,26,8.70
2012,02,28,07,27,10.10
2012,02,28,07,28,8.60
2012,02,28,07,29,11.30
2012,02,28,07,30,7.00
2012,02,28,07,31,10.00
2012,02,28,07,32,13.50
2012,02,28,07,33,9.10
2012,02,28,07,34,8.90
2012,02,28,07,35,9.40
2012,02,28,07,36,9.20
2012,02,28,07,37,10.60
2012,02,28,07,38,9.60
2012,02,28,07,39,9.50
2012,02,28,07,40,8.10
2012,02,28,07,41,9.00
2012,02,28,07,42,7.10
2012,02,28,07,43,6.40
2012,02,28,07,44,8.40
2012,02,28,07,45,8.80
2012,02,28,07,46,8.90
2012,02,28,07,47,10.10
2012,02,28,07,48,9.50
2012,02,28,07,49,9.60
2012,02,28,07,50,7.70
2012,02,28,07,51,9.30
2012,02,28,07,52,7.60
2012,02,28,07,53,12.00
2012,02,28,07,54,9.00
2012,02,28,07,55,6.30
2012,02,28,07,56,7.40
2012,02,28,07,57,5.40
2012,02,28,07,58,7.70
2012,02,28,07,59,8.80
2012,02,28,08,00,9.30
2012,02,28,08,01,8.90
2012,02,28,08,02,8.00
2012,02,28,08,03,8.90
2012,02,28,08,04,10.20
2012,02,28,08,05,8.90
2012,02,28,08,06,8.50
2012,02,28,08,07,6.40
2012,02,28,08,08,5.10
2012,02,28,08,09,4.60
2012,02,28,08,10,7.80
2012,02,28,08,11,5.70
2012,02,28,08,12,4.70
2012,02,28,08,13,6.00
2012,02,28,08,14,3.90
2012,02,28,08,15,6.40
2012,02,28,08,16,9.40
2012,02,28,08,17,8.70
2012,02,28,08,18,7.50
2012,02,28,08,19,9.00
2012,02,28,08,20,8.10
2012,02,28,08,21,9.10
2012,02,28,08,22,11.00
2012,02,28,08,23,9.70
2012,02,28,08,24,9.90
2012,02,28,08,25,6.40
2012,02,28,08,26,7.20
2012,02,28,08,27,7.00
2012,02,28,08,28,8.10
2012,02,28,08,29,12.80
2012,02,28,08,30,11.70
2012,02,28,08,31,9.60
2012,02,28,08,32,9.70
2012,02,28,08,33,10.10
2012,02,28,08,34,9.50
2012,02,28,08,35,6.90
2012,02,28,08,36,9.80
2012,02,28,08,37,6.40
2012,02,28,08,38,5.20
2012,02,28,08,39,7.30
2012,02,28,08,40,10.10
2012,02,28,08,41,9.20
2012,02,28,08,42,8.20
2012,02,28,08,43,9.50
2012,02,28,08,44,8.90
2012,02,28,08,45,7.00
2012,02,28,08,46,6.50
2012,02,28,08,47,6.20
2012,02,28,08,48,8.70
2012,02,28,08,49,8.10
2012,02,28,08,50,7.00
2012,02,28,08,51,7.90
2012,02,28,08,52,7.20
2012,02,28,08,53,4.80
2012,02,28,08,54,6.00
2012,02,28,08,55,4.40
2012,02,28,08,56,4.50
2012,02,28,08,57,8.20
2012,02,28,08,58,6.20
2012,02,28,08,59,4.80
2012,02,28,09,00,0.70
2012,02,28,09,01,0.30
2012,02,28,09,02,2.80
2012,02,28,09,03,1.40
2012,02,28,09,04,4.70
2012,02,28,09,05,8.50
2012,02,28,09,06,8.00
2012,02,28,09,07,0.70
2012,02,28,09,08,3.90
2012,02,28,09,09,3.70
2012,02,28,09,10,2.00
2012,02,28,09,11,0.00
2012,02,28,09,12,3.00
2012,02,28,09,13,3.50
2012,02,28,09,14,3.50
2012,02,28,09,15,4.10
2012,02,28,09,16,1.40
2012,02,28,09,17,0.00
2012,02,28,09,18,2.60
2012,02,28,09,19,5.90
2012,02,28,09,20,3.90
2012,02,28,09,21,1.80
2012,02,28,09,22,3.10
2012,02,28,09,23,2.10
2012,02,28,09,24,3.10
2012,02,28,09,25,6.90
2012,02,28,09,26,0.10
2012,02,28,09,27,0.00
2012,02,28,09,28,0.00
2012,02,28,09,29,3.20
2012,02,28,09,30,8.10
2012,02,28,09,31,5.50
2012,02,28,09,32,2.70
2012,02,28,09,33,4.20
2012,02,28,09,34,6.80
2012,02,28,09,35,1.90
2012,02,28,09,36,7.90
2012,02,28,09,37,5.90
2012,02,28,09,38,3.50
2012,02,28,09,39,2.60
2012,02,28,09,40,1.30
2012,02,28,09,41,0.20
2012,02,28,09,42,1.20
2012,02,28,09,43,4.80
2012,02,28,09,44,1.40
2012,02,28,09,45,0.10
2012,02,28,09,46,0.20
2012,02,28,09,47,1.60
2012,02,28,09,48,0.80
2012,02,28,09,49,4.60
2012,02,28,09,50,6.30
2012,02,28,09,51,6.30
2012,02,28,09,52,7.40
2012,02,28,09,53,9.60
2012,02,28,09,54,10.10
2012,02,28,09,55,7.20
2012,02,28,09,56,7.50
2012,02,28,09,57,5.90
2012,02,28,09,58,6.40
2012,02,28,09,59,7.50
2012,02,28,10,00,4.10
2012,02,28,10,01,3.80
2012,02,28,10,02,7.20
2012,02,28,10,03,5.90
2012,02,28,10,04,6.80
2012,02,28,10,05,1.80
2012,02,28,10,06,1.40
2012,02,28,10,07,1.60
2012,02,28,10,08,7.60
2012,02,28,10,09,4.30
2012,02,28,10,10,4.90
2012,02,28,10,11,7.40
2012,02,28,10,12,4.40
2012,02,28,10,13,2.90
2012,02,28,10,14,4.00
2012,02,28,10,15,5.00
2012,02,28,10,16,5.20
2012,02,28,10,17,3.30
2012,02,28,10,18,4.10
2012,02,28,10,19,3.50
2012,02,28,10,20,4.70
2012,02,28,10,21,6.70
2012,02,28,10,22,1.10
2012,02,28,10,23,9.70
2012,02,28,10,24,12.10
2012,02,28,10,25,5.50
2012,02,28,10,26,5.20
2012,02,28,10,27,6.50
2012,02,28,10,28,12.20
2012,02,28,10,29,12.90
2012,02,28,10,30,7.10
2012,02,28,10,31,10.50
2012,02,28,10,32,7.20
2012,02,28,10,33,4.90
2012,02,28,10,34,9.90
2012,02,28,10,35,6.40
2012,02,28,10,36,3.20
2012,02,28,10,37,12.80
2012,02,28,10,38,10.70
2012,02,28,10,39,8.80
2012,02,28,10,40,6.70
2012,02,28,10,41,7.20
2012,02,28,10,42,8.70
2012,02,28,10,43,11.00
2012,02,28,10,44,6.00
2012,02,28,10,45,4.50
2012,02,28,10,46,5.50
2012,02,28,10,47,6.70
2012,02,28,10,48,8.90
2012,02,28,10,49,18.10
2012,02,28,10,50,13.50
2012,02,28,10,51,10.80
2012,02,28,10,52,4.40
2012,02,28,10,53,11.00
2012,02,28,10,54,15.20
2012,02,28,10,55,9.70
2012,02,28,10,56,5.40
2012,02,28,10,57,5.40
2012,02,28,10,58,7.50
2012,02,28,10,59,10.20
2012,02,28,11,00,7.50
2012,02,28,11,01,9.60
2012,02,28,11,02,12.50
2012,02,28,11,03,9.10
2012,02,28,11,04,6.80
2012,02,28,11,05,6.00
2012,02,28,11,06,13.50
2012,02,28,11,07,6.70
2012,02,28,11,08,9.00
2012,02,28,11,09,6.60
2012,02,28,11,10,4.30
2012,02,28,11,11,12.20
2012,02,28,11,12,8.60
2012,02,28,11,13,7.90
2012,02,28,11,14,9.60
2012,02,28,11,15,9.30
2012,02,28,11,16,17.70
2012,02,28,11,17,14.00
2012,02,28,11,18,10.10
2012,02,28,11,19,7.00
2012,02,28,11,20,18.80
2012,02,28,11,21,3.60
2012,02,28,11,22,4.50
2012,02,28,11,23,10.30
2012,02,28,11,24,5.90
2012,02,28,11,25,8.20
2012,02,28,11,26,6.80
2012,02,28,11,27,18.20
2012,02,28,11,28,11.70
2012,02,28,11,29,10.20
2012,02,28,11,30,11.90
2012,02,28,11,31,10.00
2012,02,28,11,32,17.60
2012,02,28,11,33,21.20
2012,02,28,11,34,13.60
2012,02,28,11,35,15.30
2012,02,28,11,36,18.60
2012,02,28,11,37,13.90
2012,02,28,11,38,13.20
2012,02,28,11,39,7.70
2012,02,28,11,40,16.30
2012,02,28,11,41,18.00
2012,02,28,11,42,15.00
2012,02,28,11,43,11.80
2012,02,28,11,44,21.30
2012,02,28,11,45,21.40
2012,02,28,11,46,14.10
2012,02,28,11,47,12.60
2012,02,28,11,48,13.40
2012,02,28,11,49,8.80
2012,02,28,11,50,17.60
2012,02,28,11,51,17.90
2012,02,28,11,52,13.30
2012,02,28,11,53,14.20
2012,02,28,11,54,19.60
2012,02,28,11,55,18.20
2012,02,28,11,56,19.90
2012,02,28,11,57,26.30
2012,02,28,11,58,23.30
2012,02,28,11,59,22.00
2012,02,28,12,00,13.30
2012,02,28,12,01,18.30
2012,02,28,12,02,16.30
2012,02,28,12,03,11.80
2012,02,28,12,04,20.30
2012,02,28,12,05,21.30
2012,02,28,12,06,18.20
2012,02,28,12,07,19.70
2012,02,28,12,08,18.30
2012,02,28,12,09,16.80
2012,02,28,12,10,18.20
2012,02,28,12,11,17.10
2012,02,28,12,12,16.00
2012,02,28,12,13,23.50
2012,02,28,12,14,18.00
2012,02,28,12,15,16.10
2012,02,28,12,16,19.50
2012,02,28,12,17,18.90
2012,02,28,12,18,17.90
2012,02,28,12,19,18.80
2012,02,28,12,20,22.90
2012,02,28,12,21,22.90
2012,02,28,12,22,15.50
2012,02,28,12,23,12.20
2012,02,28,12,24,20.70
2012,02,28,12,25,21.30
2012,02,28,12,26,24.20
2012,02,28,12,27,20.90
2012,02,28,12,28,20.20
2012,02,28,12,29,19.40
2012,02,28,12,30,15.30
2012,02,28,12,31,26.30
2012,02,28,12,32,21.30
2012,02,28,12,33,16.30
2012,02,28,12,34,8.40
2012,02,28,12,35,9.00
2012,02,28,12,36,18.90
2012,02,28,12,37,20.00
2012,02,28,12,38,21.60
2012,02,28,12,39,22.40
2012,02,28,12,40,11.40
2012,02,28,12,41,23.90
2012,02,28,12,42,23.60
2012,02,28,12,43,22.80
2012,02,28,12,44,17.90
2012,02,28,12,45,23.30
2012,02,28,12,46,17.80
2012,02,28,12,47,18.50
2012,02,28,12,48,16.70
2012,02,28,12,49,10.10
2012,02,28,12,50,12.00
2012,02,28,12,51,17.30
2012,02,28,12,52,13.30
2012,02,28,12,53,23.40
2012,02,28,12,54,15.60
2012,02,28,12,55,15.70
2012,02,28,12,56,17.60
2012,02,28,12,57,18.90
2012,02,28,12,58,21.50
2012,02,28,12,59,18.90
2012,02,28,13,00,18.20
2012,02,28,13,01,16.80
2012,02,28,13,02,27.40
2012,02,28,13,03,15.00
2012,02,28,13,04,18.90
2012,02,28,13,05,13.10
2012,02,28,13,06,20.10
2012,02,28,13,07,18.30
2012,02,28,13,08,18.30
2012,02,28,13,09,19.70
2012,02,28,13,10,16.20
2012,02,28,13,11,21.20
2012,02,28,13,12,15.00
2012,02,28,13,13,17.20
2012,02,28,13,14,16.80
2012,02,28,13,15,24.60
2012,02,28,13,16,26.30
2012,02,28,13,17,18.40
2012,02,28,13,18,15.20
2012,02,28,13,19,23.30
2012,02,28,13,20,28.90
2012,02,28,13,21,24.30
2012,02,28,13,22,22.60
2012,02,28,13,23,26.20
2012,02,28,13,24,30.20
2012,02,28,13,25,30.30
2012,02,28,13,26,31.80
2012,02,28,13,27,26.30
2012,02,28,13,28,24.90
2012,02,28,13,29,30.90
2012,02,28,13,30,27.50
2012,02,28,13,31,26.80
2012,02,28,13,32,24.80
2012,02,28,13,33,22.40
2012,02,28,13,34,26.20
2012,02,28,13,35,29.70
2012,02,28,13,36,21.60
2012,02,28,13,37,23.20
2012,02,28,13,38,22.80
2012,02,28,13,39,22.80
2012,02,28,13,40,22.10
2012,02,28,13,41,16.60
2012,02,28,13,42,27.00
2012,02,28,13,43,23.20
2012,02,28,13,44,19.70
2012,02,28,13,45,17.00
2012,02,28,13,46,23.70
2012,02,28,13,47,21.30
2012,02,28,13,48,25.30
2012,02,28,13,49,26.00
2012,02,28,13,50,26.40
2012,02,28,13,51,17.00
2012,02,28,13,52,23.40
2012,02,28,13,53,25.70
2012,02,28,13,54,16.30
2012,02,28,13,55,24.30
2012,02,28,13,56,18.30
2012,02,28,13,57,16.70
2012,02,28,13,58,22.30
2012,02,28,13,59,13.50
2012,02,28,14,00,16.40
2012,02,28,14,01,15.70
2012,02,28,14,02,17.10
2012,02,28,14,03,13.60
2012,02,28,14,04,23.30
2012,02,28,14,05,24.90
2012,02,28,14,06,19.70
2012,02,28,14,07,19.80
2012,02,28,14,08,15.90
2012,02,28,14,09,17.30
2012,02,28,14,10,26.00
2012,02,28,14,11,17.70
2012,02,28,14,12,28.20
2012,02,28,14,13,41.80
2012,02,28,14,14,37.30
2012,02,28,14,15,21.00
2012,02,28,14,16,25.70
2012,02,28,14,17,36.60
2012,02,28,14,18,35.20
2012,02,28,14,19,32.60
2012,02,28,14,20,35.10
2012,02,28,14,21,37.00
2012,02,28,14,22,37.30
2012,02,28,14,23,33.10
2012,02,28,14,24,26.20
2012,02,28,14,25,37.60
2012,02,28,14,26,38.00
2012,02,28,14,27,36.80
2012,02,28,14,28,39.30
2012,02,28,14,29,42.00
2012,02,28,14,30,37.70
2012,02,28,14,31,31.60
2012,02,28,14,32,25.40
2012,02,28,14,33,43.00
2012,02,28,14,34,35.00
2012,02,28,14,35,36.30
2012,02,28,14,36,39.80
2012,02,28,14,37,37.30
2012,02,28,14,38,35.80
2012,02,28,14,39,41.40
2012,02,28,14,40,39.50
2012,02,28,14,41,38.60
2012,02,28,14,42,36.50
2012,02,28,14,43,31.50
2012,02,28,14,44,32.60
2012,02,28,14,45,31.70
2012,02,28,14,46,36.70
2012,02,28,14,47,35.20
2012,02,28,14,48,29.00
2012,02,28,14,49,40.40
2012,02,28,14,50,36.90
2012,02,28,14,51,36.50
2012,02,28,14,52,42.70
2012,02,28,14,53,35.70
2012,02,28,14,54,42.80
2012,02,28,14,55,37.00
2012,02,28,14,56,40.10
2012,02,28,14,57,35.70
2012,02,28,14,58,45.50
2012,02,28,14,59,41.30
2012,02,28,15,00,36.90
2012,02,28,15,01,27.00
2012,02,28,15,02,32.90
2012,02,28,15,03,41.00
2012,02,28,15,04,42.00
2012,02,28,15,05,40.40
2012,02,28,15,06,35.90
2012,02,28,15,07,45.40
2012,02,28,15,08,37.30
2012,02,28,15,09,40.20
2012,02,28,15,10,36.20
2012,02,28,15,11,37.30
2012,02,28,15,12,43.80
2012,02,28,15,13,34.80
2012,02,28,15,14,38.10
2012,02,28,15,15,40.60
2012,02,28,15,16,37.50
2012,02,28,15,17,40.50
2012,02,28,15,18,40.50
2012,02,28,15,19,38.00
2012,02,28,15,20,43.00
2012,02,28,15,21,35.60
2012,02,28,15,22,47.50
2012,02,28,15,23,48.20
2012,02,28,15,24,37.70
2012,02,28,15,25,36.50
2012,02,28,15,26,47.80
2012,02,28,15,27,39.40
2012,02,28,15,28,39.10
2012,02,28,15,29,45.70
2012,02,28,15,30,43.80
2012,02,28,15,31,41.50
2012,02,28,15,32,32.50
2012,02,28,15,33,36.70
2012,02,28,15,34,37.90
2012,02,28,15,35,42.80
2012,02,28,15,36,39.20
2012,02,28,15,37,41.70
2012,02,28,15,38,39.10
2012,02,28,15,39,40.20
2012,02,28,15,40,43.40
2012,02,28,15,41,44.30
2012,02,28,15,42,40.10
2012,02,28,15,43,38.30
2012,02,28,15,44,41.30
2012,02,28,15,45,38.40
2012,02,28,15,46,32.50
2012,02,28,15,47,50.20
2012,02,28,15,48,46.70
2012,02,28,15,49,39.10
2012,02,28,15,50,28.60
2012,02,28,15,51,37.70
2012,02,28,15,52,31.50
2012,02,28,15,53,43.50
2012,02,28,15,54,33.90
2012,02,28,15,55,40.60
2012,02,28,15,56,41.20
2012,02,28,15,57,53.20
2012,02,28,15,58,44.90
2012,02,28,15,59,41.40
2012,02,28,16,00,38.10
2012,02,28,16,01,37.20
2012,02,28,16,02,39.50
2012,02,28,16,03,36.40
2012,02,28,16,04,40.20
2012,02,28,16,05,36.30
2012,02,28,16,06,35.20
2012,02,28,16,07,34.00
2012,02,28,16,08,32.90
2012,02,28,16,09,41.90
2012,02,28,16,10,39.30
2012,02,28,16,11,41.20
2012,02,28,16,12,38.50
2012,02,28,16,13,40.10
2012,02,28,16,14,35.60
2012,02,28,16,15,40.80
2012,02,28,16,16,37.30
2012,02,28,16,17,34.30
2012,02,28,16,18,34.10
2012,02,28,16,19,34.00
2012,02,28,16,20,38.10
2012,02,28,16,21,33.60
2012,02,28,16,22,24.70
2012,02,28,16,23,34.90
2012,02,28,16,24,32.00
2012,02,28,16,25,35.20
2012,02,28,16,26,33.30
2012,02,28,16,27,31.50
2012,02,28,16,28,34.70
2012,02,28,16,29,34.30
2012,02,28,16,30,33.70
2012,02,28,16,31,24.50
2012,02,28,16,32,33.00
2012,02,28,16,33,23.00
2012,02,28,16,34,26.30
2012,02,28,16,35,29.00
2012,02,28,16,36,41.90
2012,02,28,16,37,34.80
2012,02,28,16,38,28.90
2012,02,28,16,39,31.70
2012,02,28,16,40,25.10
2012,02,28,16,41,28.20
2012,02,28,16,42,28.20
2012,02,28,16,43,28.80
2012,02,28,16,44,19.60
2012,02,28,16,45,32.20
2012,02,28,16,46,25.30
2012,02,28,16,47,25.50
2012,02,28,16,48,25.70
2012,02,28,16,49,18.60
2012,02,28,16,50,35.80
2012,02,28,16,51,29.70
2012,02,28,16,52,22.40
2012,02,28,16,53,18.70
2012,02,28,16,54,19.60
2012,02,28,16,55,22.90
2012,02,28,16,56,36.40
2012,02,28,16,57,34.90
2012,02,28,16,58,29.10
2012,02,28,16,59,24.00
2012,02,28,17,00,29.00
2012,02,28,17,01,20.80
2012,02,28,17,02,21.30
2012,02,28,17,03,22.20
2012,02,28,17,04,34.00
2012,02,28,17,05,19.80
2012,02,28,17,06,24.30
2012,02,28,17,07,15.50
2012,02,28,17,08,22.30
2012,02,28,17,09,17.50
2012,02,28,17,10,25.10
2012,02,28,17,11,23.20
2012,02,28,17,12,29.30
2012,02,28,17,13,27.40
2012,02,28,17,14,28.30
2012,02,28,17,15,33.40
2012,02,28,17,16,17.60
2012,02,28,17,17,17.60
2012,02,28,17,18,26.00
2012,02,28,17,19,36.90
2012,02,28,17,20,27.70
2012,02,28,17,21,15.50
2012,02,28,17,22,39.90
2012,02,28,17,23,27.30
2012,02,28,17,24,35.50
2012,02,28,17,25,27.60
2012,02,28,17,26,21.80
2012,02,28,17,27,24.90
2012,02,28,17,28,18.30
2012,02,28,17,29,31.40
2012,02,28,17,30,25.00
2012,02,28,17,31,28.90
2012,02,28,17,32,29.30
2012,02,28,17,33,20.80
2012,02,28,17,34,21.30
2012,02,28,17,35,26.70
2012,02,28,17,36,21.10
2012,02,28,17,37,28.80
2012,02,28,17,38,35.20
2012,02,28,17,39,17.90
2012,02,28,17,40,19.10
2012,02,28,17,41,26.80
2012,02,28,17,42,23.50
2012,02,28,17,43,16.50
2012,02,28,17,44,12.10
2012,02,28,17,45,24.10
2012,02,28,17,46,27.20